This is the latest recevied weather packets stored in our database for station/object F5PHW-13. If no packets are shown the sender has not sent any weather packets the latest 10 day(s).
| Time | Temp. | Humidity | Pressure | Rain* | Wind** | Luminosity | Snow |
|---|---|---|---|---|---|---|---|
| 1777828277 | 15.56° C | 73% | 1008.7 hPa | 0 mm | - | - | - |
| 1777827077 | 16.11° C | 72% | 1008.6 hPa | 0 mm | - | - | - |
| 1777825877 | 16.11° C | 72% | 1008.5 hPa | 0 mm | - | - | - |
| 1777824677 | 16.11° C | 71% | 1008.6 hPa | 0 mm | - | - | - |
| 1777823477 | 16.11° C | 72% | 1008.6 hPa | 0 mm | - | - | - |
| 1777822276 | 16.11° C | 74% | 1008.6 hPa | 0 mm | - | - | - |
| 1777821076 | 16.11° C | 76% | 1008.7 hPa | 0 mm | - | - | - |
| 1777819876 | 16.11° C | 75% | 1008.7 hPa | 0 mm | - | - | - |
| 1777818676 | 16.67° C | 74% | 1008.8 hPa | 0 mm | - | - | - |
| 1777817476 | 16.67° C | 73% | 1008.8 hPa | 0 mm | - | - | - |
| 1777816277 | 16.67° C | 73% | 1008.7 hPa | 0 mm | - | - | - |
| 1777815076 | 16.67° C | 76% | 1008.9 hPa | 0 mm | - | - | - |
| 1777813876 | 16.67° C | 78% | 1009 hPa | 0 mm | - | - | - |
| 1777812676 | 16.11° C | 79% | 1009 hPa | 0 mm | - | - | - |
| 1777811476 | 16.11° C | 79% | 1009 hPa | 0 mm | - | - | - |
| 1777810276 | 16.11° C | 79% | 1008.9 hPa | 0 mm | - | - | - |
| 1777809076 | 16.11° C | 80% | 1008.9 hPa | 0 mm | - | - | - |
| 1777807876 | 15.56° C | 80% | 1009 hPa | 0 mm | - | - | - |
| 1777806676 | 16.11° C | 81% | 1009 hPa | 0 mm | - | - | - |
| 1777805476 | 16.11° C | 82% | 1008.9 hPa | 0 mm | - | - | - |
| 1777804276 | 15.56° C | 84% | 1009.1 hPa | 0 mm | - | - | - |
| 1777803076 | 15.56° C | 85% | 1009 hPa | 0 mm | - | - | - |
| 1777801876 | 15° C | 85% | 1009 hPa | 0 mm | - | - | - |
| 1777800676 | 15° C | 83% | 1009.2 hPa | 0 mm | - | - | - |
| 1777799476 | 15.56° C | 83% | 1009.1 hPa | 0 mm | - | - | - |
* Rain latest hour (hover to see other rain measurements)
** Current wind speed in m/s (hover to see current wind gust speed)